W0WC Weather Reports


time (UTC)temp
C
wind
direction
speed
KPH
gust
KPH
rain 1hr
cm
rain 24hr
cm
rain mn
cm
humidity
%
barometer
mb
20260905220212 37 17 0.0 0.0 0.00 0.00 0.00 33 1012.6
20260905215712 38 28 0.0 0.0 0.00 0.00 0.00 32 1012.7
20260905215208 38 7 3.2 4.8 0.00 0.00 0.00 31 1012.5
20260905214703 39 18 3.2 3.2 0.00 0.00 0.00 30 1012.8
20260905214159 40 44 4.8 4.8 0.00 0.00 0.00 30 1012.9
20260905213654 39 9 1.6 3.2 0.00 0.00 0.00 30 1012.9
20260905213149 39 27 0.0 1.6 0.00 0.00 0.00 31 1012.9
20260905212644 39 76 3.2 4.8 0.00 0.00 0.00 31 1013.0
20260905212144 39 198 6.4 6.4 0.00 0.00 0.00 31 1013.1
20260905211638 40 21 4.8 4.8 0.00 0.00 0.00 32 1013.1
20260905211134 40 10 0.0 1.6 0.00 0.00 0.00 31 1013.2
20260905210631 39 0 0.0 0.0 0.00 0.00 0.00 33 1013.3
20260905210125 39 3 3.2 3.2 0.00 0.00 0.00 32 1013.2
20260905205624 38 227 6.4 6.4 0.00 0.00 0.00 33 1013.2
20260905205124 38 103 6.4 6.4 0.00 0.00 0.00 34 1013.4
20260905204623 38 4 4.8 4.8 0.00 0.00 0.00 34 1013.3
20260905204119 38 21 4.8 6.4 0.00 0.00 0.00 33 1013.6
20260905203619 38 7 6.4 9.7 0.00 0.00 0.00 34 1013.5
20260905203114 38 351 0.0 1.6 0.00 0.00 0.00 34 1013.9
20260905202610 38 3 3.2 3.2 0.00 0.00 0.00 33 1013.9
20260905202105 38 301 3.2 3.2 0.00 0.00 0.00 33 1013.8
20260905201600 38 358 1.6 3.2 0.00 0.00 0.00 33 1014.1
20260905201100 38 58 1.6 1.6 0.00 0.00 0.00 33 1014.1
20260905200556 38 205 4.8 6.4 0.00 0.00 0.00 33 1014.0
20260905200050 38 140 3.2 3.2 0.00 0.00 0.00 34 1014.4
20260905195543 38 9 4.8 6.4 0.00 0.00 0.00 33 1014.1
20260905195039 38 19 8.0 11.3 0.00 0.00 0.00 34 1014.1
20260905194539 38 54 3.2 4.8 0.00 0.00 0.00 34 1014.2
20260905194038 38 57 3.2 3.2 0.00 0.00 0.00 34 1014.6
20260905193533 38 51 3.2 3.2 0.00 0.00 0.00 35 1014.5
20260905193029 38 24 3.2 4.8 0.00 0.00 0.00 35 1014.6
20260905192524 38 204 3.2 4.8 0.00 0.00 0.00 35 1014.8
20260905192020 37 7 1.6 1.6 0.00 0.00 0.00 36 1014.8
20260905191518 36 16 8.0 9.7 0.00 0.00 0.00 37 1014.9
20260905191018 37 16 3.2 3.2 0.00 0.00 0.00 36 1015.1
20260905190516 38 6 1.6 3.2 0.00 0.00 0.00 35 1015.1
20260905190015 38 21 1.6 3.2 0.00 0.00 0.00 35 1015.0
20260905185510 38 81 3.2 3.2 0.00 0.00 0.00 36 1015.0
20260905185009 37 359 1.6 3.2 0.00 0.00 0.00 37 1015.0
20260905184504 37 35 3.2 3.2 0.00 0.00 0.00 36 1015.4
20260905184003 37 47 1.6 3.2 0.00 0.00 0.00 36 1015.3
20260905183457 36 9 4.8 4.8 0.00 0.00 0.00 37 1015.5
20260905182952 36 117 3.2 4.8 0.00 0.00 0.00 38 1015.5
20260905182451 35 25 1.6 3.2 0.00 0.00 0.00 40 1015.6
20260905181947 36 7 6.4 6.4 0.00 0.00 0.00 41 1015.7
20260905181446 36 9 4.8 4.8 0.00 0.00 0.00 40 1015.7
20260905180946 37 345 6.4 9.7 0.00 0.00 0.00 39 1015.6
20260905180440 37 5 1.6 3.2 0.00 0.00 0.00 39 1015.8
20260905175936 36 31 3.2 3.2 0.00 0.00 0.00 39 1016.0
20260905175435 38 48 6.4 9.7 0.00 0.00 0.00 38 1015.9
20260905174931 38 354 3.2 4.8 0.00 0.00 0.00 37 1016.0
20260905174426 37 257 6.4 6.4 0.00 0.00 0.00 38 1016.2
20260905173921 37 45 1.6 1.6 0.00 0.00 0.00 38 1016.0
20260905173419 37 176 4.8 6.4 0.00 0.00 0.00 38 1016.4
20260905172918 37 258 3.2 4.8 0.00 0.00 0.00 38 1016.4
20260905172416 37 22 0.0 0.0 0.00 0.00 0.00 38 1016.3
20260905171912 37 45 1.6 3.2 0.00 0.00 0.00 39 1016.5
20260905171409 37 248 4.8 4.8 0.00 0.00 0.00 39 1016.5
20260905170905 37 102 8.0 9.7 0.00 0.00 0.00 38 1016.6
20260905170401 36 5 0.0 0.0 0.00 0.00 0.00 41 1016.8
20260905165901 36 27 1.6 1.6 0.00 0.00 0.00 42 1016.7
20260905165356 36 1 4.8 6.4 0.00 0.00 0.00 41 1016.7
20260905164856 36 273 4.8 6.4 0.00 0.00 0.00 42 1016.7
20260905164351 36 317 9.7 12.9 0.00 0.00 0.00 41 1016.6
20260905163846 35 25 3.2 4.8 0.00 0.00 0.00 42 1016.6
20260905163342 35 24 3.2 4.8 0.00 0.00 0.00 43 1016.7
20260905162838 35 323 6.4 11.3 0.00 0.00 0.00 43 1016.6
20260905162338 35 62 3.2 3.2 0.00 0.00 0.00 43 1016.7
20260905161832 35 336 0.0 1.6 0.00 0.00 0.00 44 1016.9
20260905161332 35 16 1.6 1.6 0.00 0.00 0.00 44 1016.7
20260905160830 35 24 1.6 1.6 0.00 0.00 0.00 45 1016.7
20260905160325 35 144 3.2 4.8 0.00 0.00 0.00 44 1016.8
20260905155819 35 156 1.6 3.2 0.00 0.00 0.00 45 1016.9
20260905155318 35 353 6.4 9.7 0.00 0.00 0.00 45 1016.8
20260905154814 35 294 1.6 3.2 0.00 0.00 0.00 46 1016.8
20260905154309 34 354 3.2 4.8 0.00 0.00 0.00 47 1016.8
20260905153804 33 6 4.8 6.4 0.00 0.00 0.00 47 1016.6
20260905153301 33 216 4.8 6.4 0.00 0.00 0.00 48 1016.7
20260905152759 33 336 6.4 6.4 0.00 0.00 0.00 48 1016.7
20260905152259 33 281 3.2 6.4 0.00 0.00 0.00 48 1016.6
20260905151754 33 291 4.8 6.4 0.00 0.00 0.00 48 1016.6
20260905151250 33 5 0.0 1.6 0.00 0.00 0.00 48 1016.5
20260905150750 33 209 4.8 6.4 0.00 0.00 0.00 48 1016.6
20260905150249 33 289 4.8 4.8 0.00 0.00 0.00 49 1016.5
20260905145747 33 192 9.7 14.5 0.00 0.00 0.00 49 1016.6
20260905145242 33 15 3.2 3.2 0.00 0.00 0.00 49 1016.6
20260905144740 33 240 3.2 3.2 0.00 0.00 0.00 50 1016.2
20260905144236 32 21 3.2 3.2 0.00 0.00 0.00 50 1016.4
20260905143730 32 233 3.2 4.8 0.00 0.00 0.00 51 1016.6
20260905143229 31 306 8.0 11.3 0.00 0.00 0.00 52 1016.3
20260905142727 31 329 3.2 4.8 0.00 0.00 0.00 53 1016.4
20260905142223 31 212 3.2 4.8 0.00 0.00 0.00 52 1016.3
20260905141719 31 287 3.2 3.2 0.00 0.00 0.00 53 1016.4
20260905141214 31 202 3.2 4.8 0.00 0.00 0.00 54 1016.3
20260905140709 31 11 4.8 4.8 0.00 0.00 0.00 54 1016.3
20260905140209 30 286 6.4 9.7 0.00 0.00 0.00 54 1016.5
20260905135703 30 236 1.6 3.2 0.00 0.00 0.00 55 1016.6
20260905135200 30 115 3.2 4.8 0.00 0.00 0.00 56 1016.5
20260905134659 30 191 6.4 6.4 0.00 0.00 0.00 56 1016.6
20260905134158 30 92 1.6 1.6 0.00 0.00 0.00 57 1016.5
20260905133653 29 21 0.0 1.6 0.00 0.00 0.00 58 1016.4
20260905133153 29 157 3.2 3.2 0.00 0.00 0.00 59 1016.3
20260905132653 28 147 3.2 3.2 0.00 0.00 0.00 60 1016.2
20260905132148 28 185 6.4 6.4 0.00 0.00 0.00 61 1016.3
20260905131644 28 289 3.2 3.2 0.00 0.00 0.00 61 1016.0
20260905131144 28 84 3.2 4.8 0.00 0.00 0.00 61 1016.0
20260905130638 28 170 6.4 6.4 0.00 0.00 0.00 61 1016.1
20260905130133 28 209 3.2 4.8 0.00 0.00 0.00 61 1016.1
20260905125626 28 220 4.8 4.8 0.00 0.00 0.00 62 1015.9
20260905125122 28 89 3.2 3.2 0.00 0.00 0.00 62 1016.0
20260905124619 27 186 3.2 4.8 0.00 0.00 0.00 62 1015.7
20260905124114 27 14 0.0 0.0 0.00 0.00 0.00 63 1015.8
20260905123609 27 28 0.0 0.0 0.00 0.00 0.00 63 1015.6
20260905123107 27 26 0.0 1.6 0.00 0.00 0.00 64 1015.7
20260905122601 27 22 0.0 1.6 0.00 0.00 0.00 64 1015.6
20260905122100 27 25 0.0 0.0 0.00 0.00 0.00 65 1015.6
20260905121555 26 17 0.0 0.0 0.00 0.00 0.00 66 1015.7
20260905121050 26 26 0.0 1.6 0.00 0.00 0.00 66 1015.5
20260905120549 26 23 0.0 0.0 0.00 0.00 0.00 65 1015.4
20260905120045 27 15 0.0 0.0 0.00 0.00 0.00 65 1015.4
20260905115543 27 70 1.6 1.6 0.00 0.00 0.00 65 1015.4
20260905115039 27 22 1.6 3.2 0.00 0.00 0.00 65 1015.4
20260905114538 27 132 3.2 4.8 0.00 0.00 0.00 65 1015.3
20260905114037 27 302 3.2 3.2 0.00 0.00 0.00 64 1015.3
20260905113532 27 43 0.0 1.6 0.00 0.00 0.00 64 1015.3
20260905113028 27 180 3.2 4.8 0.00 0.00 0.00 64 1015.2
20260905112523 27 324 1.6 1.6 0.00 0.00 0.00 64 1015.3
20260905112018 27 28 0.0 1.6 0.00 0.00 0.00 64 1015.4
20260905111513 27 221 3.2 4.8 0.00 0.00 0.00 63 1015.1
20260905111012 27 77 0.0 1.6 0.00 0.00 0.00 63 1015.2
20260905110511 27 348 1.6 1.6 0.00 0.00 0.00 63 1015.1
20260905110007 27 21 1.6 3.2 0.00 0.00 0.00 63 1015.3
20260905105501 27 256 1.6 1.6 0.00 0.00 0.00 63 1015.2
20260905105000 27 116 1.6 3.2 0.00 0.00 0.00 63 1015.1
20260905104456 27 250 4.8 4.8 0.00 0.00 0.00 62 1015.0
20260905103951 27 283 1.6 1.6 0.00 0.00 0.00 62 1015.0
20260905103446 27 220 3.2 3.2 0.00 0.00 0.00 62 1015.2
20260905102942 27 349 1.6 1.6 0.00 0.00 0.00 62 1015.2
20260905102438 27 333 1.6 1.6 0.00 0.00 0.00 62 1015.1
20260905101933 27 250 3.2 4.8 0.00 0.00 0.00 61 1015.0
20260905101431 27 276 3.2 3.2 0.00 0.00 0.00 61 1014.9
20260905100927 27 297 1.6 3.2 0.00 0.00 0.00 61 1015.1
20260905100422 27 51 3.2 3.2 0.00 0.00 0.00 61 1015.2
20260905095921 28 27 1.6 1.6 0.00 0.00 0.00 61 1015.2
20260905095416 28 224 4.8 4.8 0.00 0.00 0.00 60 1015.0
20260905094910 28 59 3.2 3.2 0.00 0.00 0.00 60 1014.9
20260905094406 28 181 3.2 4.8 0.00 0.00 0.00 60 1015.0
20260905093905 28 29 0.0 1.6 0.00 0.00 0.00 60 1015.0
20260905093401 28 186 4.8 4.8 0.00 0.00 0.00 60 1015.0
20260905092857 28 94 3.2 4.8 0.00 0.00 0.00 60 1014.9
20260905092356 28 41 3.2 3.2 0.00 0.00 0.00 60 1015.0
20260905091851 28 145 6.4 9.7 0.00 0.00 0.00 60 1015.0
20260905091351 28 88 3.2 3.2 0.00 0.00 0.00 60 1014.8
20260905090850 28 330 4.8 4.8 0.00 0.00 0.00 60 1014.9
20260905090346 28 46 1.6 1.6 0.00 0.00 0.00 59 1015.0
20260905085845 28 231 4.8 6.4 0.00 0.00 0.00 59 1014.8
20260905085345 28 86 3.2 4.8 0.00 0.00 0.00 59 1014.8
20260905084841 28 179 3.2 4.8 0.00 0.00 0.00 59 1014.7
20260905084340 28 195 4.8 4.8 0.00 0.00 0.00 59 1014.6
20260905083835 28 135 3.2 3.2 0.00 0.00 0.00 59 1014.6
20260905083331 28 197 1.6 1.6 0.00 0.00 0.00 60 1014.6
20260905082826 28 57 1.6 1.6 0.00 0.00 0.00 60 1014.6
20260905082323 28 74 1.6 3.2 0.00 0.00 0.00 60 1014.7
20260905081823 28 10 4.8 6.4 0.00 0.00 0.00 60 1014.4
20260905081318 28 53 3.2 3.2 0.00 0.00 0.00 60 1014.4
20260905080817 28 25 3.2 4.8 0.00 0.00 0.00 59 1014.5
20260905080312 28 181 3.2 3.2 0.00 0.00 0.00 59 1014.6
20260905075810 28 28 1.6 1.6 0.00 0.00 0.00 58 1014.6
20260905075310 28 18 0.0 0.0 0.00 0.00 0.00 58 1014.5
20260905074809 28 216 4.8 4.8 0.00 0.00 0.00 58 1014.6
20260905074305 29 8 1.6 1.6 0.00 0.00 0.00 57 1014.5
20260905073801 29 178 4.8 4.8 0.00 0.00 0.00 57 1014.6
20260905073256 29 205 3.2 4.8 0.00 0.00 0.00 57 1014.5
20260905072755 29 38 0.0 0.0 0.00 0.00 0.00 57 1014.7
20260905072251 29 5 0.0 1.6 0.00 0.00 0.00 57 1014.8
20260905071747 29 14 1.6 3.2 0.00 0.00 0.00 57 1014.6
20260905071243 29 186 3.2 3.2 0.00 0.00 0.00 57 1014.4
20260905070738 29 176 3.2 3.2 0.00 0.00 0.00 57 1014.9
20260905070234 29 41 1.6 1.6 0.00 0.00 0.00 57 1014.9
20260905065733 29 180 3.2 4.8 0.00 0.00 0.00 57 1015.1
20260905065227 29 35 1.6 3.2 0.00 0.00 0.00 57 1014.8
20260905064722 29 24 0.0 0.0 0.00 0.00 0.00 56 1015.0
20260905064218 29 11 0.0 1.6 0.00 0.00 0.00 56 1014.9
20260905063716 29 51 1.6 1.6 0.00 0.00 0.00 56 1015.0
20260905063213 29 23 1.6 1.6 0.00 0.00 0.00 56 1015.0
20260905062708 29 77 3.2 3.2 0.00 0.00 0.00 55 1014.9
20260905062208 29 29 0.0 0.0 0.00 0.00 0.00 55 1015.1
20260905061702 30 24 0.0 0.0 0.00 0.00 0.00 55 1015.0
20260905061201 29 53 0.0 1.6 0.00 0.00 0.00 55 1015.1
20260905060657 30 54 1.6 3.2 0.00 0.00 0.00 55 1015.1
20260905060154 30 211 3.2 3.2 0.00 0.00 0.00 55 1015.2
20260905055652 30 35 1.6 3.2 0.00 0.00 0.00 55 1015.3
20260905055148 30 242 3.2 3.2 0.00 0.00 0.00 54 1014.9
20260905054643 30 37 3.2 3.2 0.00 0.00 0.00 54 1015.2
20260905054138 30 188 6.4 6.4 0.00 0.00 0.00 54 1015.1
20260905053638 30 178 3.2 6.4 0.00 0.00 0.00 54 1015.0
20260905053133 30 207 3.2 6.4 0.00 0.00 0.00 54 1015.1
20260905052632 30 101 3.2 4.8 0.00 0.00 0.00 53 1015.1
20260905052128 30 176 3.2 3.2 0.00 0.00 0.00 53 1015.0
20260905051623 30 188 3.2 4.8 0.00 0.00 0.00 53 1015.2
20260905051120 30 67 1.6 3.2 0.00 0.00 0.00 52 1015.1
20260905050616 30 95 3.2 3.2 0.00 0.00 0.00 52 1015.1
20260905050112 30 40 1.6 3.2 0.00 0.00 0.00 52 1014.9
20260905045612 30 36 1.6 1.6 0.00 0.00 0.00 51 1015.2
20260905045108 30 159 6.4 6.4 0.00 0.00 0.00 51 1015.0
20260905044607 30 129 4.8 4.8 0.00 0.00 0.00 50 1015.0
20260905044102 30 81 3.2 3.2 0.00 0.00 0.00 50 1015.0
20260905043601 30 28 0.0 1.6 0.00 0.00 0.00 50 1014.9
20260905043057 30 47 3.2 4.8 0.00 0.00 0.00 50 1014.9
20260905042555 30 35 1.6 1.6 0.00 0.00 0.00 49 1015.0
20260905042050 30 41 0.0 1.6 0.00 0.00 0.00 49 1015.0
20260905041546 30 68 1.6 1.6 0.00 0.00 0.00 49 1014.9
20260905041041 31 40 3.2 3.2 0.00 0.00 0.00 49 1015.0
20260905040541 31 21 0.0 0.0 0.00 0.00 0.00 49 1014.9
20260905040039 31 32 1.6 1.6 0.00 0.00 0.00 48 1014.8
20260905035535 31 176 1.6 3.2 0.00 0.00 0.00 49 1015.1
20260905035032 30 24 1.6 1.6 0.00 0.00 0.00 49 1014.9
20260905034527 30 356 1.6 1.6 0.00 0.00 0.00 52 1014.9
20260905034026 30 82 1.6 3.2 0.00 0.00 0.00 52 1014.7
20260905033520 30 45 0.0 1.6 0.00 0.00 0.00 53 1014.9
20260905033017 30 20 0.0 0.0 0.00 0.00 0.00 54 1014.8
20260905032511 30 13 0.0 0.0 0.00 0.00 0.00 53 1014.8
20260905032006 30 14 0.0 0.0 0.00 0.00 0.00 53 1014.9
20260905031502 30 13 0.0 0.0 0.00 0.00 0.00 53 1014.7
20260905030957 30 14 0.0 0.0 0.00 0.00 0.00 52 1014.8
20260905030452 30 20 0.0 0.0 0.00 0.00 0.00 51 1014.5
20260905025951 30 13 0.0 0.0 0.00 0.00 0.00 51 1014.7
20260905025447 30 8 0.0 0.0 0.00 0.00 0.00 51 1014.5
20260905024943 30 4 0.0 0.0 0.00 0.00 0.00 51 1014.5
20260905024443 30 16 0.0 0.0 0.00 0.00 0.00 50 1014.2
20260905023939 31 11 0.0 0.0 0.00 0.00 0.00 50 1014.4
20260905023434 31 9 0.0 0.0 0.00 0.00 0.00 50 1014.4
20260905022933 31 8 0.0 0.0 0.00 0.00 0.00 50 1014.1
20260905022428 30 9 0.0 0.0 0.00 0.00 0.00 50 1014.0
20260905021924 31 17 0.0 0.0 0.00 0.00 0.00 50 1014.0
20260905021423 31 21 0.0 0.0 0.00 0.00 0.00 49 1014.0
20260905020919 31 23 0.0 0.0 0.00 0.00 0.00 50 1013.8
20260905020418 31 18 0.0 0.0 0.00 0.00 0.00 49 1013.9
20260905015918 31 18 0.0 0.0 0.00 0.00 0.00 49 1013.7
20260905015416 31 17 0.0 0.0 0.00 0.00 0.00 49 1013.6
20260905014916 31 17 0.0 0.0 0.00 0.00 0.00 48 1013.4
20260905014412 31 17 0.0 0.0 0.00 0.00 0.00 47 1013.4
20260905013912 32 17 0.0 0.0 0.00 0.00 0.00 46 1013.4
20260905013408 32 13 0.0 0.0 0.00 0.00 0.00 45 1013.5
20260905012903 32 11 0.0 0.0 0.00 0.00 0.00 45 1013.3
20260905012358 32 13 0.0 0.0 0.00 0.00 0.00 44 1013.2
20260905011855 32 12 0.0 0.0 0.00 0.00 0.00 44 1013.3
20260905011350 33 13 0.0 0.0 0.00 0.00 0.00 43 1013.2
20260905010847 33 10 0.0 0.0 0.00 0.00 0.00 42 1013.4
20260905010347 33 6 0.0 0.0 0.00 0.00 0.00 42 1013.4
20260905005843 34 14 0.0 0.0 0.00 0.00 0.00 41 1013.0
20260905005339 34 14 0.0 0.0 0.00 0.00 0.00 40 1013.0
20260905004834 35 10 0.0 0.0 0.00 0.00 0.00 39 1013.2
20260905004328 35 23 0.0 1.6 0.00 0.00 0.00 38 1013.1
20260905003824 35 359 0.0 0.0 0.00 0.00 0.00 38 1013.1
20260905003320 35 343 1.6 1.6 0.00 0.00 0.00 38 1013.2
20260905002815 35 13 0.0 0.0 0.00 0.00 0.00 38 1012.9
20260905002315 36 344 1.6 1.6 0.00 0.00 0.00 37 1013.3
20260905001810 36 162 4.8 6.4 0.00 0.00 0.00 37 1012.9
20260905001309 36 211 3.2 4.8 0.00 0.00 0.00 37 1012.9
20260905000805 36 6 1.6 3.2 0.00 0.00 0.00 36 1012.9
20260905000300 36 20 1.6 1.6 0.00 0.00 0.00 36 1013.1
20260904235755 36 63 3.2 3.2 0.00 0.00 0.00 35 1013.2
20260904235249 36 35 3.2 3.2 0.00 0.00 0.00 35 1013.1
20260904234744 37 104 6.4 6.4 0.00 0.00 0.00 34 1013.2
20260904234240 36 56 3.2 4.8 0.00 0.00 0.00 35 1013.0
20260904233735 37 271 4.8 6.4 0.00 0.00 0.00 36 1013.0
20260904233232 37 172 4.8 4.8 0.00 0.00 0.00 35 1013.1
20260904232728 37 220 3.2 6.4 0.00 0.00 0.00 35 1013.1
20260904232224 37 193 6.4 12.9 0.00 0.00 0.00 34 1013.1
20260904231719 37 71 1.6 1.6 0.00 0.00 0.00 35 1013.0
20260904231215 37 223 6.4 6.4 0.00 0.00 0.00 35 1013.0
20260904230714 37 180 6.4 9.7 0.00 0.00 0.00 34 1013.2
20260904230209 37 184 6.4 6.4 0.00 0.00 0.00 35 1013.3
20260904225708 37 196 3.2 4.8 0.00 0.00 0.00 35 1013.2
20260904225203 37 8 3.2 4.8 0.00 0.00 0.00 35 1012.9
20260904224701 37 210 9.7 16.1 0.00 0.00 0.00 34 1013.1
20260904224157 37 133 6.4 9.7 0.00 0.00 0.00 34 1013.1
20260904223656 37 84 6.4 9.7 0.00 0.00 0.00 34 1013.2
20260904223151 37 42 1.6 3.2 0.00 0.00 0.00 35 1013.2
20260904222647 37 115 6.4 6.4 0.00 0.00 0.00 35 1013.3
20260904222143 37 33 3.2 4.8 0.00 0.00 0.00 35 1013.2
20260904221642 37 41 0.0 1.6 0.00 0.00 0.00 35 1013.0
20260904221137 37 143 8.0 12.9 0.00 0.00 0.00 35 1013.2
20260904220632 37 23 1.6 1.6 0.00 0.00 0.00 36 1013.1